[[{"header":{"parameterUnit":"m.s-1","parameterCategory":1,"la1":30.2991,"la2":30.254,"lo1":-89.0895,"lo2":-89.0444,"dy":0.0017,"dx":0.0017,"nx":28,"ny":28,"refTime":"2024-03-20T21:00:00:Z","depth":0,"parameterNumber":2,"parameterNumberName":"U-component_of_WINDS"},"data":[0,0,0,0,0,0,0,0,0,0,0,0,0,0,0,0,0,0,0,0,0,0,0,0,0,0,0,0,0,0,0,0,0,0,0,0,0,0,0,0,0,0,0,0,0,0,0,0,0,0,0,0,0,0,0,0,0,0,-2.4432,-2.4432,0,-2.4436,-2.4436,-2.4436,-2.4319,-2.4316,-2.4313,-2.431,-2.4318,-2.4321,-2.4325,0,0,0,0,0,0,0,0,0,0,0,0,0,-2.4327,-2.433,-2.4432,-2.4432,-2.4432,-2.4436,-2.4436,-2.4436,-2.432,-2.4316,-2.4312,-2.4308,-2.4317,-2.4321,-2.4325,0,0,0,0,0,0,0,0,0,0,0,0,0,-2.4357,-2.4331,-2.4432,-2.4374,-2.4369,-2.4436,-2.4436,-2.4436,-2.432,-2.4316,-2.4311,-2.4307,-2.4316,-2.4321,-2.4325,-2.4449,0,0,-2.434,-2.4342,0,0,0,0,0,0,0,0,-2.4355,-2.436,-2.4383,-2.4379,-2.4373,-2.4372,-2.4402,-2.4441,-2.4322,-2.4339,-2.431,-2.4304,-2.434,-2.4343,-2.4354,-2.4449,-2.445,-2.434,-2.4343,-2.4345,-2.4347,0,0,0,0,0,0,0,-2.4353,-2.436,-2.4434,-2.4383,-2.4377,-2.435,-2.4348,-2.4409,-2.4366,-2.4337,-2.4329,-2.4331,-2.4337,-2.435,-2.4353,-2.445,-2.434,-2.4344,-2.4347,-2.4349,-2.4646,-2.4651,0,0,0,0,0,0,-2.4358,-2.4359,-2.4434,-2.4434,-2.4352,-2.4355,-2.4354,-2.4377,-2.4365,-2.4359,-2.4335,-2.4325,-2.4344,-2.4348,-2.4353,-2.4497,-2.4345,-2.435,-2.4352,-2.4641,-2.4648,-2.4653,0,0,0,0,0,0,-2.4357,-2.4366,-2.4433,-2.4394,-2.44,-2.4362,-2.4389,-2.438,-2.4392,-2.4363,-2.4355,-2.4355,-2.434,-2.4347,-2.4426,-2.4496,-2.4352,-2.4356,-2.4635,-2.4643,-2.465,-2.4786,0,0,0,0,0,0,-2.4354,-2.4366,-2.4412,-2.4396,-2.4403,-2.4505,-2.4393,-2.4383,-2.44,-2.4388,-2.4381,-2.4375,-2.4337,-2.4419,-2.443,-2.45,-2.436,-2.4629,-2.4639,-2.4648,-2.4775,-2.4797,-2.4816,0,0,0,0,0,-2.4351,-2.4451,-2.4415,-2.4425,-2.4459,-2.4509,-2.4514,-2.4467,-2.4407,-2.4453,-2.4434,-2.4375,-2.4486,-2.4428,-2.444,-2.4512,-2.4624,-2.4636,-2.4647,-2.4766,-2.4793,-2.4815,0,0,0,0,0,0,-2.4478,-2.4448,-2.4408,-2.4505,-2.4511,-2.4489,-2.4546,-2.4497,-2.4521,-2.4508,-2.445,-2.445,-2.4538,-2.4533,-2.4469,-2.463,-2.4545,-2.4559,-2.4631,-2.4656,-2.4676,-2.4676,-2.4364,0,0,0,0,0,-2.4517,-2.456,-2.4531,-2.462,-2.4625,-2.4586,-2.4606,-2.4569,-2.4573,-2.4575,-2.4561,-2.4569,-2.4605,-2.463,-2.4662,-2.4773,-2.477,-2.4828,-2.4849,-2.4866,-2.4879,-2.4938,-2.4963,-2.469,-2.469,-2.469,0,0,-2.46,-2.4588,-2.4619,-2.4646,-2.4645,-2.4691,-2.4588,-2.4641,-2.4675,-2.4583,-2.4657,-2.4647,-2.4652,-2.4747,-2.4789,-2.4745,-2.4954,-2.488,-2.4894,-2.4898,-2.4952,-2.4978,-2.5001,-2.4698,-2.4697,-2.4695,0,0,-2.4772,-2.4768,-2.4841,-2.4843,-2.4843,-2.4816,-2.4834,-2.482,-2.481,-2.4882,-2.4814,-2.4854,-2.4918,-2.4923,-2.4935,-2.5109,-2.5056,-2.5121,-2.5229,-2.5287,-2.5308,-2.5327,-2.5389,-2.5413,-2.5134,-2.5135,-2.5135,0,-2.4875,-2.494,-2.4886,-2.4943,-2.4957,-2.4874,-2.4949,-2.4953,-2.4965,-2.4977,-2.4928,-2.5006,-2.5003,-2.5098,-2.5141,-2.5153,-2.5172,-2.5122,-2.5309,-2.5327,-2.5344,-2.5403,-2.5427,-2.5143,-2.5142,-2.5141,-2.514,0,-2.5066,-2.5112,-2.5172,-2.5183,-2.5204,-2.527,-2.5227,-2.5254,-2.5216,-2.5195,-2.527,-2.5263,-2.5292,-2.5312,-2.5275,-2.5403,-2.5376,-2.5319,-2.5232,-2.5379,-2.5433,-2.5456,-2.5154,-2.5151,-2.5149,-2.5147,0,0,-2.532,-2.5299,-2.5322,-2.5326,-2.532,-2.5356,-2.5418,-2.5444,-2.547,-2.5481,-2.5532,-2.5587,-2.5534,-2.5547,-2.5511,-2.5561,-2.57,-2.5498,-2.5497,-2.5536,-2.5841,-2.5884,-2.5911,-2.5665,-2.5669,-2.5672,-2.584,0,-2.5487,-2.5591,-2.5544,-2.5654,-2.5696,-2.5618,-2.5672,-2.5675,-2.5657,-2.5691,-2.5671,-2.5711,-2.5638,-2.5645,-2.5692,-2.5674,-2.5761,-2.5661,-2.5713,-2.5716,-2.5715,-2.5939,-2.5984,-2.6143,-2.5861,-2.5865,-2.5867,0,-2.5697,-2.5714,-2.5828,-2.5814,-2.583,-2.5879,-2.59,-2.5933,-2.5935,-2.5918,-2.5933,-2.5884,-2.5945,-2.5859,-2.5943,-2.5876,-2.5894,-2.5889,-2.5894,-2.5897,-2.5801,-2.5949,-2.6193,-2.6217,-2.59,-2.5898,-2.5895,0,-2.5871,-2.5923,-2.5997,-2.6003,-2.5989,-2.6025,-2.6021,-2.6018,-2.6037,-2.6056,-2.6068,-2.6094,-2.6108,-2.613,-2.6091,-2.6031,-2.6181,-2.609,-2.6169,-2.617,-2.6204,-2.6203,-2.6456,-2.6217,-2.6216,-2.6216,-2.6215,0,-2.6063,-2.6136,-2.6075,-2.6121,-2.62,-2.6146,-2.6226,-2.6214,-2.6212,-2.6255,-2.6189,-2.6231,-2.6176,-2.6213,-2.6183,-2.6257,-2.6265,-2.6253,-2.6245,-2.6259,-2.6261,-2.6271,-2.6259,-2.6222,-2.6221,-2.6219,-2.6218,0,-2.6271,-2.6233,-2.6309,-2.6288,-2.6285,-2.6344,-2.6327,-2.637,-2.6346,-2.6402,-2.6411,-2.6376,-2.6416,-2.6378,-2.6417,-2.6397,-2.6496,-2.6471,-2.6495,-2.6488,-2.6569,-2.6562,-2.6837,-2.6871,-2.6611,-2.6613,-2.6615,0,-2.6396,-2.6449,-2.6434,-2.6457,-2.6457,-2.6496,-2.6514,-2.6463,-2.6485,-2.6491,-2.6533,-2.6567,-2.6592,-2.666,-2.6638,-2.6668,-2.6643,-2.6738,-2.6647,-2.666,-2.6645,-2.6642,-2.6647,-2.6756,-2.6759,-2.6762,-2.6764,0,-2.6622,-2.66,-2.6629,-2.6651,-2.6674,-2.669,-2.67,-2.6724,-2.6671,-2.67,-2.6739,-2.6758,-2.6796,-2.6832,-2.6854,-2.6851,-2.68,-2.6792,-2.6812,-2.6828,-2.6839,-2.6834,-2.6545,-2.6786,-2.6784,-2.6782,-2.6781,-2.678,-2.6792,-2.6836,-2.6832,-2.6865,-2.6868,-2.6879,-2.6917,-2.6898,-2.693,-2.6956,-2.6924,-2.6973,-2.6974,-2.6998,-2.7001,-2.7039,-2.7,-2.7029,-2.7036,-2.7044,-2.7056,-2.6833,-2.7043,-2.7043,-2.7042,-2.7041,-2.7041,0,-2.7014,-2.7007,-2.7039,-2.7055,-2.7082,-2.7029,-2.7038,-2.7065,-2.7107,-2.7112,-2.7137,-2.7183,-2.7216,-2.7197,-2.7226,-2.726,-2.7238,-2.727,-2.7267,-2.7267,-2.7089,-2.7069,-2.7288,-2.7288,-2.7288,-2.7288,-2.7288,-2.7288,-2.7133,-2.7204,-2.7183,-2.7255,-2.7248,-2.7293,-2.7303,-2.7313,-2.7316,-2.737,-2.7397,-2.7383,-2.7379,-2.7407,-2.7436,-2.7429,-2.7443,-2.7484,-2.747,-2.7304,-2.728,-2.7256,-2.7237,-2.7488,-2.7488,-2.7644,-2.7645,-2.7646]},{"header":{"parameterUnit":"m.s-1","parameterCategory":1,"la1":30.2991,"la2":30.254,"lo1":-89.0895,"lo2":-89.0444,"dy":0.0017,"dx":0.0017,"nx":28,"ny":28,"refTime":"2024-03-20T21:00:00:Z","depth":0,"parameterNumber":3,"parameterNumberName":"V-component_of_WINDS"},"data":[0,0,0,0,0,0,0,0,0,0,0,0,0,0,0,0,0,0,0,0,0,0,0,0,0,0,0,0,0,0,0,0,0,0,0,0,0,0,0,0,0,0,0,0,0,0,0,0,0,0,0,0,0,0,0,0,0,0,-0.6725,-0.6726,0,-0.6844,-0.6845,-0.6846,-0.6919,-0.6919,-0.692,-0.692,-0.7042,-0.7045,-0.7048,0,0,0,0,0,0,0,0,0,0,0,0,0,-0.6558,-0.656,-0.6724,-0.6726,-0.6727,-0.6844,-0.6845,-0.6847,-0.6919,-0.6919,-0.692,-0.692,-0.7041,-0.7044,-0.7048,0,0,0,0,0,0,0,0,0,0,0,0,0,-0.6649,-0.6561,-0.6724,-0.6777,-0.6783,-0.6843,-0.6845,-0.6847,-0.6919,-0.692,-0.692,-0.6921,-0.704,-0.7044,-0.7048,-0.7064,0,0,-0.7062,-0.7063,0,0,0,0,0,0,0,0,-0.6644,-0.6655,-0.6768,-0.6774,-0.6781,-0.6867,-0.6831,-0.692,-0.6919,-0.6867,-0.692,-0.6921,-0.6983,-0.6992,-0.7013,-0.707,-0.7075,-0.7062,-0.7065,-0.7066,-0.7068,0,0,0,0,0,0,0,-0.6637,-0.665,-0.6772,-0.677,-0.6777,-0.6795,-0.6808,-0.6848,-0.6921,-0.6872,-0.6878,-0.6891,-0.6987,-0.7009,-0.7017,-0.7077,-0.7062,-0.7066,-0.7068,-0.707,-0.715,-0.715,0,0,0,0,0,0,-0.6623,-0.6644,-0.6768,-0.6775,-0.6712,-0.6797,-0.6813,-0.6839,-0.6921,-0.6934,-0.689,-0.6894,-0.7001,-0.7012,-0.7021,-0.7044,-0.7066,-0.707,-0.7073,-0.7151,-0.715,-0.715,0,0,0,0,0,0,-0.6619,-0.6633,-0.6763,-0.6711,-0.6729,-0.68,-0.6829,-0.6841,-0.6863,-0.6934,-0.6947,-0.69,-0.7002,-0.7015,-0.7053,-0.7049,-0.7072,-0.7076,-0.7151,-0.7151,-0.715,-0.709,0,0,0,0,0,0,-0.6614,-0.6631,-0.6638,-0.6711,-0.6732,-0.6792,-0.6828,-0.6843,-0.6871,-0.6876,-0.6947,-0.6959,-0.7004,-0.7046,-0.7057,-0.7056,-0.708,-0.7152,-0.7151,-0.715,-0.7093,-0.7087,-0.7083,0,0,0,0,0,-0.6607,-0.6617,-0.6638,-0.6653,-0.6742,-0.6792,-0.6804,-0.6855,-0.687,-0.6877,-0.6923,-0.6957,-0.7048,-0.7049,-0.7062,-0.7062,-0.7152,-0.7151,-0.715,-0.7095,-0.7088,-0.7083,0,0,0,0,0,0,-0.6542,-0.6627,-0.6652,-0.6686,-0.6731,-0.6804,-0.6815,-0.6847,-0.689,-0.6893,-0.6955,-0.697,-0.7001,-0.7036,-0.7035,-0.7081,-0.7104,-0.7105,-0.7057,-0.7052,-0.7047,-0.7037,-0.7083,0,0,0,0,0,-0.6531,-0.6565,-0.6638,-0.666,-0.6682,-0.6744,-0.6768,-0.6804,-0.6853,-0.6873,-0.6921,-0.6968,-0.7007,-0.7031,-0.7072,-0.7098,-0.7114,-0.7105,-0.71,-0.7095,-0.7095,-0.711,-0.7107,-0.7146,-0.7146,-0.7146,0,0,-0.651,-0.6561,-0.6579,-0.6648,-0.6688,-0.6721,-0.676,-0.6794,-0.6818,-0.6878,-0.6916,-0.6953,-0.7009,-0.704,-0.7057,-0.707,-0.7088,-0.7094,-0.709,-0.7093,-0.7109,-0.7105,-0.7102,-0.7146,-0.7146,-0.7146,0,0,-0.6488,-0.653,-0.6552,-0.6591,-0.665,-0.6691,-0.6696,-0.6765,-0.6792,-0.6831,-0.6875,-0.6906,-0.6972,-0.701,-0.7037,-0.7027,-0.7059,-0.7039,-0.7013,-0.7027,-0.7023,-0.7021,-0.7016,-0.7013,-0.7039,-0.7039,-0.7039,0,-0.6453,-0.6505,-0.656,-0.659,-0.6619,-0.6674,-0.6697,-0.6732,-0.6801,-0.6819,-0.6833,-0.6916,-0.6958,-0.6998,-0.6996,-0.7017,-0.7024,-0.7031,-0.702,-0.7018,-0.7016,-0.7012,-0.701,-0.7036,-0.7036,-0.7036,-0.7037,0,-0.6459,-0.6494,-0.6505,-0.657,-0.66,-0.6626,-0.6684,-0.6708,-0.6741,-0.678,-0.6818,-0.687,-0.6921,-0.6933,-0.6966,-0.6978,-0.6984,-0.7008,-0.7032,-0.7008,-0.7005,-0.7004,-0.7031,-0.7033,-0.7033,-0.7034,0,0,-0.6399,-0.6493,-0.6496,-0.6525,-0.6594,-0.6622,-0.665,-0.6699,-0.6718,-0.6763,-0.6788,-0.6842,-0.6864,-0.6896,-0.6933,-0.6945,-0.6931,-0.6968,-0.697,-0.6958,-0.6946,-0.6926,-0.6923,-0.6953,-0.6953,-0.6953,-0.694,0,-0.6385,-0.6439,-0.6489,-0.6524,-0.6556,-0.6609,-0.6633,-0.6677,-0.6714,-0.6747,-0.6788,-0.6825,-0.6852,-0.6871,-0.6886,-0.693,-0.693,-0.6932,-0.6975,-0.6976,-0.6958,-0.6922,-0.6902,-0.6887,-0.694,-0.694,-0.6939,0,-0.6377,-0.642,-0.6458,-0.6522,-0.6537,-0.6558,-0.6607,-0.6637,-0.6688,-0.6714,-0.6748,-0.6787,-0.6818,-0.6839,-0.6882,-0.6883,-0.6904,-0.6928,-0.6928,-0.6934,-0.6955,-0.6925,-0.6884,-0.6881,-0.6938,-0.6939,-0.6939,0,-0.6327,-0.6394,-0.6425,-0.6449,-0.6525,-0.6538,-0.657,-0.6622,-0.6648,-0.669,-0.6707,-0.6752,-0.6777,-0.6811,-0.686,-0.6871,-0.6897,-0.6923,-0.6919,-0.6917,-0.6921,-0.692,-0.6882,-0.6937,-0.6937,-0.6937,-0.6937,0,-0.6306,-0.6327,-0.6404,-0.6423,-0.6447,-0.6504,-0.6526,-0.6563,-0.6608,-0.6634,-0.6683,-0.6706,-0.6771,-0.6802,-0.6841,-0.687,-0.6881,-0.6902,-0.6912,-0.6897,-0.6894,-0.6911,-0.6912,-0.6936,-0.6936,-0.6936,-0.6937,0,-0.6254,-0.6307,-0.6344,-0.6412,-0.643,-0.6445,-0.6503,-0.6523,-0.6563,-0.6596,-0.6606,-0.6669,-0.6708,-0.676,-0.6816,-0.6842,-0.6865,-0.6882,-0.6848,-0.6853,-0.6845,-0.6845,-0.6815,-0.6813,-0.687,-0.687,-0.6869,0,-0.6237,-0.6254,-0.6324,-0.6345,-0.6376,-0.6409,-0.6436,-0.6492,-0.6517,-0.6575,-0.6588,-0.663,-0.6667,-0.6727,-0.6776,-0.6819,-0.6836,-0.6822,-0.6842,-0.6826,-0.6834,-0.6831,-0.6832,-0.6817,-0.6816,-0.6815,-0.6815,0,-0.6199,-0.6224,-0.6261,-0.6306,-0.6336,-0.6374,-0.6414,-0.6429,-0.6493,-0.6519,-0.6559,-0.6588,-0.6644,-0.6685,-0.6733,-0.6766,-0.68,-0.6808,-0.6809,-0.6793,-0.6772,-0.6782,-0.6833,-0.6809,-0.6809,-0.681,-0.681,-0.681,-0.6163,-0.618,-0.6232,-0.627,-0.6307,-0.6343,-0.6364,-0.6406,-0.6441,-0.6491,-0.6522,-0.656,-0.6609,-0.6678,-0.6709,-0.6739,-0.6753,-0.6755,-0.6755,-0.6754,-0.6748,-0.6768,-0.6748,-0.6748,-0.6749,-0.6749,-0.6749,0,-0.6127,-0.6163,-0.6198,-0.6252,-0.6282,-0.6312,-0.6358,-0.6381,-0.6414,-0.6457,-0.6492,-0.6537,-0.6577,-0.6629,-0.6672,-0.6686,-0.6703,-0.6695,-0.6694,-0.6701,-0.6734,-0.6728,-0.6681,-0.6681,-0.6681,-0.6681,-0.6681,-0.6681,-0.6112,-0.6141,-0.6172,-0.622,-0.6255,-0.6293,-0.6316,-0.6349,-0.6384,-0.6432,-0.6465,-0.6499,-0.6546,-0.6592,-0.6629,-0.6644,-0.6657,-0.6644,-0.6663,-0.6693,-0.6699,-0.6705,-0.6699,-0.6647,-0.6647,-0.6627,-0.6627,-0.6627]}]]